QPF
0.01 0.00 0.00 0.00 0.01 0.01 0.01 0.03 0.04 0.05 0.05 0.04 0.06 0.04 0.03 0.03 0.02 0.02 0.03 0.04 0.04 0.04 0.04 0.04 0.05 0.05 0.04 0.03 0.04 0.05 0.04 0.04 0.09 0.11 0.10 0.08 0.09 0.10 0.06 0.04 0.04 0.07 0.08 0.09
0.01 0.00 0.00 0.01 0.01 0.01 0.01 0.02 0.02 0.03 0.03 0.02 0.02 0.02 0.03 0.03 0.04 0.03 0.02 0.02 0.03 0.04 0.04 0.04 0.04 0.04 0.03 0.02 0.03 0.04 0.04 0.04 0.05 0.07 0.10 0.09 0.08 0.08 0.07 0.06 0.06 0.06 0.09 0.09
0.01 0.00 0.01 0.04 0.02 0.01 0.01 0.02 0.02 0.03 0.04 0.03 0.02 0.02 0.03 0.02 0.02 0.02 0.02 0.02 0.03 0.03 0.03 0.03 0.03 0.03 0.03 0.03 0.04 0.05 0.05 0.04 0.05 0.06 0.08 0.08 0.06 0.06 0.07 0.07 0.06 0.05 0.06 0.06
0.01 0.02 0.04 0.04 0.01 0.01 0.01 0.02 0.02 0.02 0.03 0.03 0.03 0.03 0.03 0.02 0.03 0.03 0.02 0.04 0.04 0.03 0.04 0.03 0.03 0.02 0.02 0.03 0.03 0.04 0.06 0.06 0.06 0.07 0.07 0.08 0.08 0.08 0.08 0.08 0.06 0.05 0.04 0.04
0.02 0.04 0.04 0.03 0.01 0.01 0.03 0.04 0.02 0.02 0.02 0.03 0.03 0.03 0.03 0.02 0.02 0.03 0.03 0.03 0.04 0.04 0.04 0.04 0.03 0.02 0.02 0.03 0.03 0.04 0.05 0.06 0.06 0.07 0.06 0.08 0.10 0.10 0.08 0.07 0.07 0.07 0.05 0.05
0.03 0.04 0.05 0.03 0.01 0.00 0.02 0.04 0.01 0.02 0.04 0.05 0.05 0.05 0.04 0.02 0.02 0.02 0.03 0.04 0.04 0.06 0.05 0.04 0.03 0.03 0.03 0.03 0.05 0.05 0.04 0.05 0.06 0.06 0.07 0.07 0.10 0.09 0.07 0.07 0.08 0.06 0.06 0.05
0.04 0.05 0.05 0.03 0.01 0.01 0.04 0.05 0.03 0.03 0.05 0.06 0.06 0.06 0.05 0.03 0.02 0.02 0.03 0.05 0.05 0.07 0.07 0.06 0.03 0.03 0.04 0.04 0.05 0.04 0.03 0.04 0.05 0.05 0.06 0.06 0.07 0.08 0.06 0.06 0.06 0.05 0.05 0.05
0.07 0.08 0.07 0.04 0.03 0.04 0.05 0.05 0.04 0.06 0.08 0.08 0.06 0.06 0.05 0.04 0.03 0.02 0.03 0.05 0.07 0.10 0.08 0.04 0.02 0.03 0.04 0.04 0.04 0.04 0.04 0.04 0.04 0.05 0.06 0.06 0.06 0.07 0.07 0.06 0.06 0.05 0.05 0.04
0.06 0.08 0.08 0.07 0.06 0.06 0.06 0.07 0.07 0.09 0.07 0.06 0.05 0.05 0.04 0.03 0.03 0.03 0.05 0.06 0.08 0.08 0.05 0.03 0.02 0.04 0.05 0.05 0.04 0.04 0.04 0.04 0.05 0.05 0.06 0.06 0.06 0.06 0.06 0.05 0.06 0.05 0.04 0.03
0.02 0.03 0.04 0.06 0.05 0.05 0.06 0.08 0.07 0.07 0.06 0.05 0.04 0.04 0.04 0.03 0.03 0.04 0.06 0.06 0.06 0.05 0.04 0.03 0.03 0.04 0.05 0.05 0.04 0.05 0.05 0.05 0.05 0.06 0.05 0.05 0.06 0.06 0.06 0.05 0.05 0.04 0.03 0.03
0.01 0.01 0.01 0.01 0.01 0.02 0.03 0.02 0.02 0.03 0.04 0.03 0.03 0.04 0.04 0.05 0.06 0.04 0.04 0.04 0.04 0.04 0.04 0.04 0.04 0.04 0.05 0.05 0.06 0.05 0.05 0.04 0.04 0.05 0.05 0.05 0.05 0.04 0.04 0.04 0.03 0.03 0.03 0.03
0.02 0.02 0.02 0.01 0.01 0.01 0.01 0.01 0.01 0.02 0.02 0.02 0.03 0.04 0.04 0.05 0.05 0.04 0.03 0.04 0.04 0.04 0.03 0.04 0.04 0.04 0.05 0.05 0.05 0.04 0.03 0.04 0.04 0.05 0.05 0.06 0.05 0.04 0.03 0.03 0.02 0.01 0.01 0.01
0.03 0.02 0.02 0.01 0.01 0.01 0.01 0.01 0.01 0.01 0.02 0.02 0.02 0.03 0.06 0.06 0.03 0.03 0.04 0.04 0.05 0.04 0.05 0.05 0.04 0.04 0.04 0.04 0.04 0.03 0.03 0.03 0.04 0.05 0.07 0.07 0.07 0.05 0.02 0.02 0.01 0.01 0.01 0.01
0.03 0.03 0.02 0.02 0.02 0.01 0.01 0.01 0.01 0.01 0.01 0.02 0.02 0.02 0.05 0.05 0.04 0.03 0.03 0.03 0.03 0.04 0.05 0.05 0.05 0.04 0.04 0.04 0.04 0.04 0.03 0.04 0.04 0.05 0.05 0.06 0.06 0.04 0.03 0.02 0.02 0.01 0.01 0.01
0.02 0.02 0.01 0.01 0.01 0.01 0.00 0.00 0.01 0.01 0.01 0.01 0.01 0.01 0.02 0.03 0.02 0.02 0.02 0.02 0.02 0.02 0.03 0.03 0.04 0.03 0.04 0.03 0.03 0.03 0.02 0.03 0.04 0.04 0.04 0.03 0.04 0.04 0.03 0.03 0.02 0.01 0.01 0.01
0.02 0.02 0.01 0.01 0.01 0.01 0.00 0.01 0.01 0.01 0.01 0.01 0.01 0.01 0.01 0.02 0.02 0.01 0.02 0.02 0.04 0.04 0.03 0.02 0.03 0.03 0.03 0.02 0.02 0.03 0.01 0.02 0.02 0.03 0.03 0.03 0.03 0.03 0.03 0.02 0.02 0.02 0.01 0.01
0.02 0.02 0.02 0.01 0.01 0.01 0.00 0.00 0.01 0.01 0.02 0.01 0.01 0.01 0.01 0.02 0.02 0.01 0.02 0.03 0.03 0.04 0.04 0.04 0.04 0.03 0.03 0.02 0.02 0.02 0.01 0.01 0.01 0.01 0.02 0.03 0.03 0.03 0.02 0.01 0.02 0.02 0.01 0.01
0.02 0.01 0.01 0.01 0.01 0.01 0.01 0.01 0.02 0.02 0.02 0.02 0.01 0.01 0.01 0.02 0.02 0.02 0.02 0.04 0.04 0.02 0.02 0.02 0.03 0.03 0.02 0.01 0.01 0.01 0.00 0.01 0.01 0.02 0.02 0.02 0.03 0.02 0.01 0.01 0.01 0.01 0.01 0.01
0.01 0.00 0.00 0.00 0.00 0.01 0.01 0.02 0.02 0.03 0.03 0.03 0.02 0.02 0.02 0.03 0.02 0.02 0.03 0.04 0.05 0.04 0.02 0.02 0.02 0.02 0.01 0.01 0.01 0.01 0.01 0.01 0.02 0.01 0.02 0.02 0.02 0.02 0.01 0.01 0.01 0.01 0.01 0.01
0.01 0.00 0.00 0.01 0.00 0.01 0.01 0.02 0.02 0.03 0.02 0.03 0.02 0.03 0.04 0.03 0.02 0.02 0.03 0.05 0.05 0.03 0.02 0.03 0.01 0.01 0.01 0.01 0.01 0.01 0.02 0.01 0.01 0.01 0.01 0.02 0.02 0.02 0.01 0.01 0.01 0.01 0.01 0.00
0.01 0.01 0.01 0.01 0.01 0.01 0.02 0.02 0.03 0.03 0.02 0.02 0.02 0.03 0.04 0.04 0.02 0.02 0.04 0.05 0.04 0.02 0.02 0.02 0.02 0.01 0.01 0.01 0.01 0.02 0.02 0.02 0.01 0.01 0.01 0.01 0.02 0.01 0.01 0.01 0.01 0.01 0.01 0.01
0.01 0.01 0.01 0.01 0.01 0.01 0.02 0.03 0.03 0.03 0.03 0.02 0.02 0.02 0.02 0.03 0.02 0.02 0.04 0.04 0.03 0.02 0.02 0.02 0.02 0.01 0.01 0.00 0.01 0.02 0.02 0.02 0.01 0.01 0.01 0.01 0.01 0.01 0.02 0.01 0.01 0.01 0.01 0.00
0.01 0.01 0.01 0.01 0.01 0.02 0.02 0.03 0.03 0.03 0.03 0.02 0.01 0.01 0.01 0.02 0.02 0.02 0.03 0.03 0.02 0.01 0.01 0.01 0.01 0.01 0.01 0.00 0.01 0.02 0.02 0.02 0.02 0.02 0.01 0.01 0.01 0.01 0.02 0.01 0.01 0.00 0.00 0.00
0.01 0.01 0.01 0.01 0.02 0.02 0.02 0.02 0.03 0.03 0.02 0.01 0.01 0.01 0.01 0.02 0.02 0.02 0.03 0.02 0.02 0.01 0.00 0.00 0.01 0.01 0.01 0.01 0.01 0.02 0.02 0.02 0.01 0.01 0.01 0.01 0.01 0.01 0.01 0.01 0.00 0.00 0.00 0.00
0.01 0.01 0.01 0.02 0.02 0.03 0.03 0.03 0.03 0.02 0.01 0.01 0.01 0.01 0.01 0.01 0.02 0.02 0.02 0.01 0.01 0.00 0.00 0.00 0.00 0.00 0.01 0.02 0.02 0.02 0.02 0.01 0.01 0.00 0.00 0.00 0.00 0.00 0.00 0.00 0.00 0.00 0.00 0.00
0.01 0.01 0.02 0.02 0.03 0.03 0.03 0.04 0.03 0.02 0.02 0.02 0.02 0.01 0.01 0.02 0.03 0.02 0.02 0.01 0.01 0.00 0.00 0.00 0.01 0.01 0.02 0.02 0.01 0.01 0.01 0.00 0.00 0.00 0.00 0.00 0.00 0.01 0.01 0.00 0.00 0.00 0.00 0.00
0.01 0.01 0.02 0.02 0.02 0.02 0.03 0.04 0.03 0.02 0.01 0.01 0.01 0.01 0.01 0.02 0.03 0.02 0.02 0.02 0.01 0.01 0.00 0.00 0.01 0.01 0.01 0.01 0.00 0.00 0.01 0.00 0.00 0.00 0.01 0.01 0.01 0.01 0.01 0.01 0.01 0.01 0.01 0.01
MSLP
1017.85 1017.79 1018.01 1018.48 1019.10 1019.75 1020.29 1020.58 1020.54 1020.11 1019.31 1018.21 1016.92 1015.56 1014.26 1013.10 1012.12 1011.32 1010.67 1010.08 1009.48 1008.80 1008.00 1007.07 1006.03 1004.94 1003.86 1002.89 1002.06 1001.42 1000.98 1000.72 1000.60 1000.58 1000.61 1000.67 1000.73 1000.79 1000.87 1000.98 1001.16 1001.41 1001.76 1002.19
1018.35 1018.39 1018.69 1019.19 1019.81 1020.43 1020.91 1021.13 1021.00 1020.49 1019.61 1018.44 1017.08 1015.66 1014.29 1013.06 1012.02 1011.17 1010.47 1009.86 1009.26 1008.61 1007.86 1007.02 1006.10 1005.14 1004.22 1003.39 1002.71 1002.20 1001.87 1001.69 1001.63 1001.63 1001.66 1001.69 1001.69 1001.68 1001.68 1001.71 1001.80 1001.98 1002.27 1002.67
1018.92 1019.07 1019.43 1019.95 1020.55 1021.11 1021.50 1021.61 1021.39 1020.78 1019.83 1018.60 1017.20 1015.75 1014.35 1013.09 1012.02 1011.14 1010.42 1009.79 1009.20 1008.57 1007.88 1007.10 1006.27 1005.43 1004.62 1003.91 1003.33 1002.91 1002.66 1002.53 1002.50 1002.53 1002.56 1002.58 1002.57 1002.53 1002.50 1002.50 1002.56 1002.72 1002.98 1003.35
1019.59 1019.83 1020.23 1020.74 1021.28 1021.74 1022.01 1022.01 1021.67 1020.97 1019.96 1018.70 1017.29 1015.84 1014.46 1013.22 1012.16 1011.29 1010.56 1009.93 1009.33 1008.71 1008.04 1007.30 1006.52 1005.73 1004.98 1004.32 1003.80 1003.42 1003.20 1003.10 1003.09 1003.13 1003.19 1003.23 1003.25 1003.24 1003.25 1003.28 1003.37 1003.54 1003.82 1004.19
1020.30 1020.60 1021.01 1021.47 1021.92 1022.25 1022.38 1022.24 1021.79 1021.01 1019.96 1018.70 1017.32 1015.93 1014.61 1013.43 1012.42 1011.58 1010.86 1010.24 1009.63 1009.00 1008.32 1007.57 1006.79 1005.99 1005.24 1004.58 1004.05 1003.68 1003.45 1003.35 1003.35 1003.42 1003.51 1003.61 1003.70 1003.78 1003.87 1003.98 1004.16 1004.39 1004.71 1005.11
1020.99 1021.31 1021.68 1022.06 1022.38 1022.56 1022.53 1022.25 1021.68 1020.84 1019.78 1018.55 1017.24 1015.94 1014.73 1013.65 1012.73 1011.95 1011.27 1010.65 1010.03 1009.38 1008.66 1007.87 1007.04 1006.20 1005.41 1004.71 1004.14 1003.72 1003.47 1003.36 1003.37 1003.47 1003.62 1003.80 1003.98 1004.18 1004.39 1004.63 1004.91 1005.24 1005.62 1006.06
1021.58 1021.87 1022.17 1022.43 1022.59 1022.60 1022.41 1021.98 1021.32 1020.44 1019.38 1018.21 1017.01 1015.85 1014.78 1013.83 1013.02 1012.32 1011.69 1011.09 1010.46 1009.78 1009.01 1008.17 1007.28 1006.38 1005.52 1004.77 1004.15 1003.69 1003.41 1003.29 1003.31 1003.44 1003.66 1003.93 1004.23 1004.55 1004.90 1005.26 1005.66 1006.08 1006.52 1006.99
1021.99 1022.22 1022.41 1022.53 1022.53 1022.36 1022.01 1021.46 1020.72 1019.81 1018.79 1017.71 1016.64 1015.63 1014.71 1013.92 1013.23 1012.62 1012.06 1011.49 1010.86 1010.15 1009.35 1008.47 1007.53 1006.58 1005.68 1004.89 1004.23 1003.75 1003.45 1003.34 1003.38 1003.55 1003.83 1004.18 1004.58 1005.01 1005.47 1005.94 1006.42 1006.92 1007.41 1007.89
1022.18 1022.33 1022.40 1022.37 1022.21 1021.89 1021.40 1020.74 1019.94 1019.03 1018.07 1017.09 1016.15 1015.30 1014.55 1013.90 1013.34 1012.84 1012.34 1011.81 1011.21 1010.50 1009.69 1008.79 1007.85 1006.89 1005.99 1005.19 1004.54 1004.07 1003.78 1003.68 1003.75 1003.96 1004.29 1004.70 1005.16 1005.66 1006.18 1006.72 1007.25 1007.77 1008.27 1008.74
1022.15 1022.21 1022.18 1022.02 1021.72 1021.26 1020.66 1019.93 1019.10 1018.21 1017.31 1016.44 1015.64 1014.93 1014.33 1013.82 1013.38 1012.97 1012.55 1012.07 1011.50 1010.83 1010.05 1009.19 1008.28 1007.38 1006.53 1005.78 1005.18 1004.75 1004.51 1004.44 1004.54 1004.78 1005.12 1005.55 1006.03 1006.54 1007.08 1007.61 1008.13 1008.63 1009.11 1009.54
1021.94 1021.92 1021.80 1021.54 1021.14 1020.59 1019.92 1019.15 1018.32 1017.47 1016.63 1015.86 1015.18 1014.60 1014.12 1013.73 1013.38 1013.06 1012.70 1012.28 1011.77 1011.16 1010.45 1009.67 1008.86 1008.06 1007.31 1006.68 1006.17 1005.83 1005.65 1005.63 1005.75 1005.99 1006.32 1006.73 1007.17 1007.64 1008.12 1008.60 1009.06 1009.50 1009.90 1010.26
1021.59 1021.52 1021.34 1021.02 1020.57 1019.98 1019.28 1018.50 1017.69 1016.88 1016.12 1015.43 1014.84 1014.36 1013.98 1013.66 1013.40 1013.13 1012.84 1012.48 1012.04 1011.51 1010.91 1010.25 1009.58 1008.92 1008.33 1007.83 1007.45 1007.21 1007.11 1007.13 1007.27 1007.50 1007.79 1008.13 1008.49 1008.87 1009.25 1009.62 1009.98 1010.32 1010.63 1010.91
1021.16 1021.08 1020.88 1020.54 1020.07 1019.47 1018.78 1018.02 1017.25 1016.49 1015.79 1015.17 1014.66 1014.25 1013.92 1013.66 1013.44 1013.23 1012.98 1012.69 1012.32 1011.89 1011.41 1010.89 1010.38 1009.89 1009.46 1009.12 1008.88 1008.75 1008.72 1008.78 1008.92 1009.11 1009.34 1009.59 1009.85 1010.10 1010.36 1010.60 1010.84 1011.07 1011.28 1011.47
1020.72 1020.64 1020.44 1020.11 1019.65 1019.08 1018.42 1017.70 1016.98 1016.27 1015.63 1015.07 1014.60 1014.23 1013.95 1013.72 1013.53 1013.35 1013.14 1012.90 1012.61 1012.28 1011.92 1011.55 1011.18 1010.86 1010.59 1010.40 1010.28 1010.24 1010.28 1010.36 1010.49 1010.64 1010.79 1010.95 1011.09 1011.22 1011.35 1011.48 1011.60 1011.72 1011.84 1011.96
1020.30 1020.24 1020.06 1019.76 1019.33 1018.79 1018.16 1017.49 1016.81 1016.16 1015.56 1015.05 1014.62 1014.28 1014.02 1013.81 1013.64 1013.48 1013.31 1013.12 1012.90 1012.66 1012.41 1012.16 1011.93 1011.74 1011.60 1011.53 1011.51 1011.55 1011.62 1011.71 1011.82 1011.92 1012.00 1012.07 1012.11 1012.14 1012.16 1012.19 1012.22 1012.26 1012.31 1012.37
1019.95 1019.90 1019.74 1019.46 1019.06 1018.55 1017.96 1017.34 1016.70 1016.09 1015.53 1015.05 1014.66 1014.34 1014.10 1013.91 1013.76 1013.63 1013.49 1013.34 1013.18 1013.01 1012.84 1012.69 1012.56 1012.47 1012.43 1012.43 1012.47 1012.55 1012.63 1012.72 1012.80 1012.85 1012.88 1012.87 1012.85 1012.81 1012.76 1012.72 1012.69 1012.69 1012.70 1012.72
1019.67 1019.63 1019.48 1019.21 1018.82 1018.34 1017.78 1017.18 1016.58 1016.00 1015.48 1015.03 1014.67 1014.39 1014.17 1014.01 1013.88 1013.78 1013.67 1013.57 1013.45 1013.34 1013.23 1013.14 1013.07 1013.04 1013.04 1013.07 1013.14 1013.21 1013.29 1013.36 1013.40 1013.42 1013.41 1013.36 1013.30 1013.22 1013.15 1013.08 1013.03 1013.01 1013.00 1013.01
1019.47 1019.42 1019.27 1019.00 1018.62 1018.14 1017.59 1017.01 1016.43 1015.88 1015.40 1014.98 1014.65 1014.41 1014.23 1014.10 1014.01 1013.94 1013.87 1013.81 1013.74 1013.66 1013.59 1013.52 1013.48 1013.46 1013.46 1013.49 1013.53 1013.58 1013.63 1013.67 1013.69 1013.68 1013.64 1013.58 1013.51 1013.43 1013.36 1013.30 1013.25 1013.23 1013.22 1013.23
1019.34 1019.29 1019.12 1018.83 1018.43 1017.95 1017.40 1016.83 1016.27 1015.74 1015.29 1014.91 1014.62 1014.42 1014.28 1014.20 1014.16 1014.13 1014.11 1014.08 1014.04 1013.99 1013.93 1013.87 1013.82 1013.78 1013.75 1013.74 1013.74 1013.75 1013.75 1013.75 1013.73 1013.70 1013.66 1013.61 1013.55 1013.49 1013.44 1013.40 1013.37 1013.36 1013.36 1013.36
1019.26 1019.18 1018.99 1018.69 1018.27 1017.77 1017.23 1016.66 1016.11 1015.61 1015.19 1014.85 1014.60 1014.44 1014.36 1014.33 1014.33 1014.35 1014.37 1014.37 1014.36 1014.32 1014.26 1014.19 1014.12 1014.04 1013.97 1013.90 1013.84 1013.79 1013.75 1013.70 1013.66 1013.61 1013.56 1013.52 1013.48 1013.44 1013.42 1013.40 1013.39 1013.39 1013.39 1013.40
1019.16 1019.08 1018.87 1018.55 1018.13 1017.62 1017.07 1016.52 1015.99 1015.51 1015.12 1014.81 1014.61 1014.49 1014.45 1014.46 1014.51 1014.57 1014.62 1014.65 1014.66 1014.63 1014.57 1014.49 1014.38 1014.26 1014.14 1014.02 1013.91 1013.80 1013.70 1013.61 1013.54 1013.47 1013.42 1013.38 1013.36 1013.34 1013.33 1013.33 1013.33 1013.33 1013.33 1013.32
1019.02 1018.93 1018.72 1018.40 1017.97 1017.47 1016.94 1016.40 1015.89 1015.44 1015.07 1014.79 1014.62 1014.53 1014.52 1014.56 1014.64 1014.73 1014.81 1014.86 1014.88 1014.87 1014.81 1014.71 1014.59 1014.44 1014.28 1014.11 1013.95 1013.79 1013.65 1013.53 1013.43 1013.34 1013.28 1013.24 1013.22 1013.21 1013.20 1013.21 1013.20 1013.19 1013.17 1013.13
1018.77 1018.69 1018.49 1018.18 1017.77 1017.30 1016.78 1016.27 1015.78 1015.36 1015.01 1014.75 1014.59 1014.52 1014.52 1014.57 1014.66 1014.76 1014.85 1014.92 1014.96 1014.95 1014.90 1014.80 1014.68 1014.52 1014.34 1014.15 1013.96 1013.78 1013.61 1013.46 1013.33 1013.23 1013.16 1013.11 1013.08 1013.06 1013.05 1013.03 1013.02 1012.98 1012.94 1012.87
1018.39 1018.33 1018.16 1017.88 1017.50 1017.06 1016.58 1016.10 1015.64 1015.24 1014.90 1014.65 1014.48 1014.40 1014.39 1014.43 1014.50 1014.60 1014.69 1014.76 1014.81 1014.81 1014.78 1014.71 1014.59 1014.45 1014.28 1014.10 1013.91 1013.72 1013.54 1013.38 1013.24 1013.13 1013.04 1012.97 1012.93 1012.89 1012.87 1012.83 1012.79 1012.74 1012.67 1012.58
1017.90 1017.86 1017.72 1017.47 1017.14 1016.74 1016.30 1015.86 1015.43 1015.04 1014.70 1014.44 1014.26 1014.14 1014.09 1014.10 1014.14 1014.21 1014.28 1014.35 1014.40 1014.43 1014.42 1014.38 1014.31 1014.20 1014.07 1013.91 1013.75 1013.58 1013.41 1013.26 1013.12 1013.00 1012.90 1012.83 1012.77 1012.72 1012.68 1012.63 1012.57 1012.49 1012.40 1012.29
1017.31 1017.30 1017.18 1016.98 1016.69 1016.34 1015.95 1015.54 1015.13 1014.75 1014.41 1014.12 1013.90 1013.74 1013.63 1013.58 1013.57 1013.60 1013.65 1013.70 1013.76 1013.80 1013.83 1013.83 1013.81 1013.76 1013.69 1013.59 1013.47 1013.34 1013.21 1013.07 1012.95 1012.84 1012.74 1012.66 1012.60 1012.54 1012.49 1012.43 1012.36 1012.28 1012.18 1012.06
1016.68 1016.68 1016.60 1016.43 1016.19 1015.88 1015.53 1015.16 1014.77 1014.40 1014.04 1013.73 1013.46 1013.23 1013.07 1012.95 1012.88 1012.85 1012.85 1012.89 1012.94 1013.00 1013.06 1013.12 1013.15 1013.17 1013.16 1013.13 1013.07 1013.00 1012.91 1012.82 1012.72 1012.63 1012.55 1012.48 1012.42 1012.36 1012.31 1012.26 1012.19 1012.11 1012.02 1011.92
Thickness
5704 5711 5711 5707 5706 5706 5698 5691 5681 5681 5680 5679 5679 5677 5676 5672 5670 5668 5665 5664 5662 5659 5657 5656 5654 5653 5652 5651 5650 5650 5648 5647 5645 5644 5642 5640 5639 5639 5638 5637 5637 5636 5634 5633
5696 5706 5706 5701 5702 5701 5695 5691 5685 5681 5675 5679 5677 5675 5670 5666 5662 5659 5657 5656 5654 5652 5650 5648 5647 5647 5647 5646 5645 5644 5643 5642 5641 5640 5637 5635 5635 5634 5633 5632 5632 5631 5630 5628
5681 5696 5695 5683 5693 5692 5687 5686 5678 5667 5666 5670 5666 5663 5659 5657 5654 5651 5650 5648 5646 5644 5643 5642 5642 5641 5641 5641 5640 5639 5638 5638 5637 5635 5633 5631 5631 5630 5628 5626 5626 5626 5625 5623
5676 5677 5662 5682 5700 5693 5683 5678 5673 5667 5664 5661 5659 5659 5657 5654 5649 5645 5643 5643 5641 5639 5638 5638 5638 5638 5638 5638 5637 5635 5634 5634 5632 5630 5629 5628 5627 5625 5624 5622 5622 5622 5621 5619
5666 5661 5664 5678 5683 5680 5671 5664 5664 5658 5655 5654 5656 5653 5650 5648 5644 5640 5638 5638 5637 5637 5636 5635 5635 5635 5634 5635 5634 5632 5631 5630 5629 5626 5625 5623 5622 5621 5620 5620 5619 5619 5618 5616
5662 5651 5645 5659 5673 5680 5670 5653 5653 5651 5646 5645 5644 5634 5636 5640 5638 5636 5635 5635 5635 5635 5634 5632 5633 5633 5631 5630 5630 5629 5629 5628 5627 5625 5622 5620 5619 5619 5619 5619 5618 5617 5615 5614
5657 5650 5654 5661 5668 5667 5644 5635 5644 5644 5640 5637 5632 5629 5633 5635 5634 5633 5632 5632 5633 5633 5631 5630 5631 5630 5628 5627 5627 5628 5628 5627 5625 5623 5621 5620 5619 5618 5618 5617 5616 5615 5613 5612
5653 5644 5643 5658 5656 5644 5637 5642 5641 5639 5636 5633 5633 5634 5633 5632 5631 5631 5630 5630 5631 5630 5629 5629 5629 5627 5626 5626 5627 5627 5626 5625 5623 5622 5621 5620 5618 5618 5618 5616 5615 5613 5612 5610
5649 5647 5653 5655 5649 5648 5645 5640 5640 5638 5636 5634 5633 5632 5632 5630 5629 5629 5628 5628 5629 5628 5627 5627 5628 5627 5625 5626 5627 5626 5624 5623 5622 5622 5621 5620 5618 5617 5616 5616 5614 5612 5610 5608
5650 5653 5654 5653 5650 5647 5643 5639 5638 5637 5636 5634 5631 5630 5630 5629 5627 5627 5626 5627 5627 5626 5624 5625 5626 5626 5626 5627 5627 5625 5623 5622 5621 5620 5620 5620 5618 5617 5615 5613 5612 5610 5608 5606
5643 5647 5648 5647 5644 5642 5640 5638 5637 5636 5635 5633 5630 5629 5628 5626 5625 5625 5625 5626 5625 5624 5623 5624 5625 5626 5627 5627 5627 5624 5622 5621 5620 5620 5619 5618 5616 5613 5613 5611 5609 5607 5606 5604
5634 5639 5635 5636 5639 5639 5635 5634 5634 5633 5632 5632 5629 5627 5626 5625 5624 5623 5623 5624 5624 5624 5624 5625 5625 5626 5627 5627 5626 5623 5621 5620 5620 5619 5619 5618 5616 5612 5610 5609 5607 5605 5603 5601
5638 5638 5636 5637 5637 5635 5633 5632 5632 5630 5629 5628 5627 5625 5624 5623 5624 5623 5623 5623 5623 5623 5624 5624 5625 5625 5627 5627 5626 5623 5621 5620 5620 5620 5619 5618 5617 5615 5612 5608 5605 5604 5602 5600
5637 5633 5629 5631 5631 5632 5631 5631 5630 5629 5628 5626 5625 5623 5623 5621 5622 5622 5622 5623 5624 5624 5624 5624 5624 5625 5627 5627 5625 5623 5622 5620 5619 5620 5619 5620 5619 5617 5615 5612 5608 5606 5602 5599
5631 5627 5626 5628 5628 5627 5628 5627 5624 5623 5623 5622 5622 5620 5620 5619 5619 5621 5623 5624 5624 5624 5624 5624 5624 5624 5626 5626 5625 5623 5622 5621 5620 5621 5621 5621 5620 5619 5617 5614 5611 5608 5606 5601
5624 5624 5623 5621 5621 5621 5621 5620 5618 5618 5619 5618 5618 5617 5618 5619 5619 5620 5622 5622 5622 5622 5623 5623 5622 5624 5625 5625 5624 5623 5622 5621 5620 5620 5621 5621 5620 5619 5617 5615 5612 5609 5607 5603
5614 5613 5613 5612 5613 5615 5615 5615 5615 5615 5615 5615 5616 5617 5617 5617 5617 5618 5619 5620 5622 5622 5623 5622 5623 5625 5625 5625 5624 5624 5625 5624 5620 5621 5621 5621 5620 5619 5617 5615 5612 5610 5608 5604
5612 5610 5609 5608 5607 5608 5610 5612 5612 5612 5612 5614 5615 5615 5615 5614 5615 5616 5618 5619 5621 5621 5622 5623 5624 5624 5625 5625 5624 5625 5626 5626 5625 5623 5622 5621 5620 5619 5617 5615 5612 5610 5608 5605
5606 5605 5604 5605 5604 5605 5606 5607 5608 5609 5611 5611 5612 5612 5613 5615 5616 5617 5618 5619 5619 5619 5621 5623 5622 5623 5624 5625 5623 5625 5626 5626 5625 5624 5623 5621 5620 5619 5617 5614 5612 5610 5608 5604
5599 5599 5599 5600 5602 5601 5602 5603 5604 5605 5608 5609 5610 5611 5613 5614 5616 5617 5617 5618 5620 5621 5623 5623 5623 5623 5624 5625 5623 5625 5626 5626 5626 5625 5624 5622 5620 5618 5616 5613 5612 5609 5606 5603
5589 5591 5592 5595 5596 5597 5599 5600 5600 5602 5605 5607 5608 5610 5612 5614 5617 5618 5618 5618 5621 5622 5623 5622 5623 5624 5625 5624 5622 5625 5626 5626 5626 5625 5624 5622 5620 5618 5615 5613 5611 5608 5605 5601
5582 5584 5586 5588 5590 5592 5595 5596 5598 5600 5602 5605 5608 5610 5612 5613 5616 5618 5620 5620 5622 5621 5623 5625 5625 5624 5624 5623 5625 5626 5627 5626 5625 5625 5623 5622 5620 5617 5615 5612 5609 5607 5604 5600
5576 5579 5581 5583 5586 5588 5592 5594 5596 5599 5601 5604 5607 5610 5612 5615 5617 5618 5619 5622 5624 5622 5624 5626 5624 5623 5621 5624 5627 5627 5627 5625 5625 5624 5623 5622 5620 5618 5615 5612 5609 5605 5602 5598
5571 5574 5577 5580 5584 5586 5588 5592 5595 5598 5602 5606 5609 5611 5613 5616 5618 5622 5623 5623 5623 5622 5625 5624 5623 5623 5622 5626 5627 5627 5627 5626 5625 5625 5623 5622 5620 5618 5615 5611 5607 5604 5601 5597
5567 5571 5574 5576 5579 5584 5587 5591 5595 5598 5602 5606 5609 5613 5616 5618 5619 5622 5624 5625 5623 5623 5625 5625 5623 5623 5625 5627 5628 5628 5628 5627 5626 5625 5622 5621 5619 5616 5613 5610 5606 5602 5598 5594
5564 5567 5571 5573 5577 5581 5586 5589 5592 5596 5600 5604 5608 5612 5616 5618 5621 5623 5624 5625 5626 5625 5627 5628 5628 5626 5628 5629 5630 5629 5629 5627 5626 5624 5622 5620 5617 5614 5611 5607 5604 5600 5596 5592
5563 5566 5570 5573 5578 5582 5585 5588 5591 5594 5599 5603 5607 5612 5615 5618 5620 5623 5625 5626 5628 5628 5629 5631 5632 5632 5632 5632 5632 5631 5630 5628 5627 5625 5622 5619 5616 5612 5610 5606 5602 5598 5593 5589